Regional Weather Roundup
Issued by NWS

Home | Current Version | Previous Version | Graphics & Text | Print | Product List | Glossary On
Versions: 1 2 3 4 5 6 7 8 9 10 11 12 13 14 15 16 17 18 19 20 21 22 23 24 25 26 27 28 29 30 31 32 33 34 35 36 37 38 39 40 41 42 43 44 45 46 47 48 49 50
206
ASUS43 KLOT 221700
RWRIL

ILLINOIS REGIONAL WEATHER ROUNDUP
NATIONAL WEATHER SERVICE CHICAGO/ROMEOVILLE IL
1200 PM CDT FRI MAY 22 2015

NOTE: "FAIR" INDICATES FEW OR NO CLOUDS BELOW 12,000 FEET WITH NO
SIGNIFICANT WEATHER AND/OR OBSTRUCTIONS TO VISIBILITY.

* THESE STATIONS ARE NOT UNDER NWS QUALITY CONTROL. THEY ALSO MAY NOT
  REPORT WEATHER SUCH AS PRECIPITATION OR FOG.

ILZ001-002-007-009-015-016-024-221800-
NORTHWEST ILLINOIS

CITY           SKY/WX    TMP DP  RH WIND       PRES   REMARKS
MOLINE         SUNNY     75  41  29 W6        30.20S
STERLING*      SUNNY     72  43  35 NE6       30.21S
$$

ILZ003-004-008-010-011-017-018-221800-
NORTH CENTRAL ILLINOIS

CITY           SKY/WX    TMP DP  RH WIND       PRES   REMARKS
ROCKFORD       MOSUNNY   69  39  33 SE5       30.24S
$$

ILZ005-006-012>014-019>023-221800-
NORTHEAST ILLINOIS

CITY           SKY/WX    TMP DP  RH WIND       PRES   REMARKS
CHICAGO-OHARE  MOSUNNY   62  30  29 E9        30.23R
CHICAGO-MIDWAY MOSUNNY   65  37  35 E9        30.24R
AURORA         SUNNY     70  37  29 NE6       30.22S
WAUKEGAN       SUNNY     56  31  38 NE9       30.25R
DUPAGE AIRPORT SUNNY     66  37  34 NE8       30.22S
WHEELING       SUNNY     59  30  33 NE12      30.26R
NORTHERLY ISL    N/A     52  38  58 N13         N/A
$$

LMZ740>746-221800-
SOUTHERN LAKE MICHIGAN

STATION/POSITION SKY/WX   TEMP    WIND        PRES    VSBY  WAVE
                          AIR SEA DIR/SP/G                  HT/PER
                          (F)     (DEG/KT/KT) (MB)    (MI)  (FT/S)
SOUTHERN BUOY              40 38  340/  6/  6 1025.5R         1
HARRISON CRIB              46     360/ 11/ 12   N/A
BURNHAM HARBOR             53     360/  9/ 12   N/A
CALUMET HARBOR             52     350/  8/ 12   N/A
BURNS HARBOR               51      20/  5/  6 1024.0R
MICHIGAN CITY              50     360/ 13/ 14   N/A
MICHIGAN CITY 6N           49 51   20/ 12/ 14   N/A           1/ 2
ST. JOSEPH                 52 53   20/ 12/ 14   N/A           1/ 3
$$

ILZ025>027-034>036-040-047-049-050-058-095>099-221800-
WEST-CENTRAL ILLINOIS

CITY           SKY/WX    TMP DP  RH WIND       PRES   REMARKS
QUINCY         PTSUNNY   72  46  39 SW6       30.23S
$$

ILZ028>032-037-038-041>044-048-051>054-059>061-221800-
CENTRAL ILLINOIS

CITY           SKY/WX    TMP DP  RH WIND       PRES   REMARKS
DECATUR        SUNNY     74  44  34 MISG      30.22R
PEORIA         SUNNY     76  40  27 NW5       30.21R
SPRINGFIELD    SUNNY     76  40  27 CALM      30.23R
TAYLORVILLE    NOT AVBL
$$

ILZ033-039-045-046-055>057-062-063-221800-
EAST-CENTRAL ILLINOIS

CITY           SKY/WX    TMP DP  RH WIND       PRES   REMARKS
CHAMPAIGN      SUNNY     74  41  30 N9        30.21S
MATTOON        SUNNY     73  44  35 W9        30.21S
$$

ILZ079-100>102-221800-
SOUTHWEST ILLINOIS

CITY           SKY/WX    TMP DP  RH WIND       PRES   REMARKS
ALTON          PTSUNNY   70  50  49 W7        30.25F
BELLEVILLE     MOSUNNY   71  52  50 SW6       30.24S
CAHOKIA*       SUNNY     72  47  40 NW8       30.24F
$$

ILZ064>066-069>071-074>076-080>082-084>086-088>090-092>094-221800-
SOUTH-CENTRAL ILLINOIS

CITY           SKY/WX    TMP DP  RH WIND       PRES   REMARKS
CARBONDALE     SUNNY     69  49  48 SW6       30.28R
MARION         SUNNY     70  50  49 SW9       30.28S
MT. VERNON     SUNNY     70  54  56 SW8       30.27R
$$

ILZ067-068-072-073-078-083-087-091-221800-
SOUTHEAST ILLINOIS

CITY           SKY/WX    TMP DP  RH WIND       PRES   REMARKS
LAWRENCEVILLE  SUNNY     70  52  52 S9        30.24F
$$

ABBREVIATIONS USED IN REMARKS
   TC - TEMPERATURE IN CELSIUS
  WCI - WIND CHILL INDEX
   HX - HEAT INDEX
  VSB - VISIBILITY
$$




USA.gov is the U.S. government's official web portal to all federal, state and local government web resources and services.